This is the latest recevied weather packets stored in our database for station/object NR6G-12. If no packets are shown the sender has not sent any weather packets the latest 10 day(s).
| Time | Temp. | Humidity | Pressure | Rain* | Wind** | Luminosity | Snow |
|---|---|---|---|---|---|---|---|
| 1788295933 | 19.44° C | 42% | 1017.7 hPa | 0 mm | - | - | - |
| 1788295573 | 18.89° C | 52% | 1017.7 hPa | 0 mm | - | - | - |
| 1788295213 | 17.78° C | 55% | 1017.6 hPa | 0 mm | - | - | - |
| 1788294853 | 17.78° C | 57% | 1017.6 hPa | 0 mm | - | - | - |
| 1788294493 | 17.78° C | 59% | 1017.8 hPa | 0 mm | - | - | - |
| 1788294133 | 17.22° C | 58% | 1017.8 hPa | 0 mm | - | - | - |
| 1788293773 | 17.22° C | 57% | 1017.7 hPa | 0 mm | - | - | - |
| 1788293413 | 17.22° C | 59% | 1017.8 hPa | 0 mm | - | - | - |
| 1788293053 | 17.22° C | 60% | 1017.8 hPa | 0 mm | - | - | - |
| 1788292693 | 17.78° C | 60% | 1017.7 hPa | 0 mm | - | - | - |
| 1788292333 | 17.78° C | 58% | 1017.6 hPa | 0 mm | - | - | - |
| 1788291973 | 17.78° C | 58% | 1017.7 hPa | 0 mm | - | - | - |
| 1788291613 | 17.78° C | 57% | 1017.8 hPa | 0 mm | - | - | - |
| 1788291253 | 17.78° C | 51% | 1017.8 hPa | 0 mm | - | - | - |
| 1788290893 | 18.33° C | 33% | 1017.8 hPa | 0 mm | - | - | - |
| 1788290533 | 18.89° C | 36% | 1017.8 hPa | 0 mm | - | - | - |
| 1788290173 | 18.89° C | 43% | 1017.7 hPa | 0 mm | - | - | - |
| 1788289813 | 19.44° C | 36% | 1017.7 hPa | 0 mm | - | - | - |
| 1788289453 | 20° C | 27% | 1017.7 hPa | 0 mm | - | - | - |
| 1788289093 | 20° C | 35% | 1017.8 hPa | 0 mm | - | - | - |
| 1788288734 | 20° C | 33% | 1017.8 hPa | 0 mm | - | - | - |
| 1788288373 | 20° C | 35% | 1017.8 hPa | 0 mm | - | - | - |
| 1788288013 | 19.44° C | 38% | 1017.7 hPa | 0 mm | - | - | - |
| 1788287653 | 19.44° C | 35% | 1017.7 hPa | 0 mm | - | - | - |
| 1788287293 | 20° C | 46% | 1017.7 hPa | 0 mm | - | - | - |
* Rain latest hour (hover to see other rain measurements)
** Current wind speed in m/s (hover to see current wind gust speed)